Overview Statistics Trail Chart Weather Telemetry Raw packets
 

This is the latest recevied weather packets stored in our database for station/object ED1ZAI-14. If no packets are shown the sender has not sent any weather packets the latest 10 day(s).

<< 1 2 3 4 5 6 >>
Time Temp. Humidity Pressure Rain* Wind** Luminosity Snow
1788527055 31.11° C 17% 818.5 hPa - - - -
1788525255 30.56° C 17% 818.6 hPa - - - -
1788523455 30.56° C 18% 818.9 hPa - - - -
1788519854 29.44° C 20% 818.9 hPa - - - -
1788518054 28.89° C 22% 818.9 hPa - - - -
1788516348 27.78° C 21% 819.1 hPa - - - -
1788516254 27.78° C 21% 819.1 hPa - - - -
1788514454 28.89° C 21% 819 hPa - - - -
1788512654 27.22° C 22% 818.6 hPa - - - -
1788510854 25.56° C 23% 818.6 hPa - - - -
1788509054 24.44° C 25% 818.3 hPa - - - -
1788505454 21.11° C 27% 818.2 hPa - - - -
1788503654 20° C 29% 818 hPa - - - -
1788501854 18.89° C 30% 817.9 hPa - - - -
1788500054 18.33° C 31% 817.7 hPa - - - -
1788498253 18.33° C 30% 817.8 hPa - - - -
1788496453 17.78° C 32% 817.8 hPa - - - -
1788494653 18.33° C 32% 817.8 hPa - - - -
1788492853 17.78° C 31% 817.9 hPa - - - -
1788491053 17.78° C 31% 818.1 hPa - - - -
1788489253 18.33° C 31% 818.3 hPa - - - -
1788487453 17.78° C 31% 818.4 hPa - - - -
1788485653 18.33° C 30% 818.7 hPa - - - -
1788483855 18.33° C 30% 818.7 hPa - - - -
1788482054 18.33° C 30% 818.8 hPa - - - -

* Rain since midnight (hover to see other rain measurements)
** Current wind speed in m/s (hover to see current wind gust speed)